• In India
  • List of Countries
  • For 7 days
  • Water Temperature
  • Satellite Maps
  • Weather Map
  • Weather Widgets
  • user-avatar
    Login

    Hourly Weather Klagenfurt

    Today, 21 January, Sunday

    Time Temperature Precipitation Wind Pressure Humidity
    00:00 -3°C° 0.2 mm 2 mps 678 mmHg 88%
    01:00 0°C° 0 mm 1 mps 678 mmHg 91%
    02:00 0°C° 0.1 mm 1 mps 677 mmHg 91%
    03:00 0°C° 0.1 mm 1 mps 677 mmHg 91%
    04:00 0°C° 0.1 mm 1 mps 677 mmHg 92%
    05:00 0°C° 0.1 mm 1 mps 677 mmHg 91%
    06:00 -1°C° 0.1 mm 1 mps 677 mmHg 90%
    07:00 -1°C° 0.1 mm 1 mps 677 mmHg 90%
    08:00 0°C° 0 mm 1 mps 678 mmHg 84%
    09:00 +2°C° 0 mm 1 mps 679 mmHg 79%
    10:00 +3°C° 0 mm 1 mps 680 mmHg 74%
    11:00 +3°C° 0 mm 2 mps 680 mmHg 66%
    12:00 +3°C° 0 mm 3 mps 681 mmHg 59%
    13:00 +3°C° 0 mm 4 mps 682 mmHg 51%
    14:00 +2°C° 0 mm 3 mps 682 mmHg 54%
    15:00 +1°C° 0 mm 3 mps 683 mmHg 57%
    16:00 0°C° 0 mm 3 mps 684 mmHg 59%
    17:00 -1°C° 0 mm 2 mps 684 mmHg 63%
    18:00 -2°C° 0 mm 2 mps 685 mmHg 67%
    19:00 -4°C° 0 mm 2 mps 686 mmHg 71%
    20:00 -2°C° 0 mm 1 mps 686 mmHg 72%
    21:00 -2°C° 0 mm 1 mps 687 mmHg 73%
    22:00 -2°C° 0 mm 1 mps 687 mmHg 74%
    23:00 -3°C° 0 mm 1 mps 688 mmHg 75%

    Tomorrow, 22 January, Monday

    Time Temperature Precipitation Wind Pressure Humidity
    00:00 -3°C° 0 mm 1 mps 688 mmHg 76%
    01:00 -3°C° 0 mm 1 mps 688 mmHg 76%
    02:00 -3°C° 0 mm 1 mps 688 mmHg 76%
    03:00 -3°C° 0 mm 1 mps 688 mmHg 76%
    04:00 -3°C° 0 mm 1 mps 687 mmHg 75%
    05:00 -3°C° 0.1 mm 1 mps 687 mmHg 76%
    06:00 -3°C° 0.1 mm 1 mps 687 mmHg 76%
    07:00 -2°C° 0.1 mm 1 mps 687 mmHg 77%
    08:00 -2°C° 0.2 mm 1 mps 687 mmHg 75%
    09:00 -1°C° 0.2 mm 1 mps 687 mmHg 73%
    10:00 -1°C° 0.2 mm 1 mps 687 mmHg 71%
    11:00 0°C° 0.1 mm 1 mps 687 mmHg 69%
    12:00 +1°C° 0.1 mm 1 mps 687 mmHg 66%
    13:00 +2°C° 0.1 mm 1 mps 687 mmHg 64%
    14:00 +2°C° 0 mm 1 mps 686 mmHg 67%
    15:00 +2°C° 0 mm 1 mps 686 mmHg 71%
    16:00 +1°C° 0 mm 1 mps 686 mmHg 74%
    17:00 +1°C° 0 mm 1 mps 686 mmHg 76%
    18:00 0°C° 0 mm 1 mps 686 mmHg 79%
    19:00 -1°C° 0 mm 1 mps 686 mmHg 81%
    20:00 -1°C° 0 mm 1 mps 687 mmHg 81%
    21:00 -1°C° 0 mm 1 mps 687 mmHg 82%
    22:00 -1°C° 0 mm 1 mps 688 mmHg 82%
    23:00 -1°C° 0 mm 1 mps 688 mmHg 82%

    Day after tomorrow, 23 January, Tuesday

    Time Temperature Precipitation Wind Pressure Humidity
    00:00 -1°C° 0 mm 1 mps 688 mmHg 83%
    01:00 -1°C° 0 mm 1 mps 689 mmHg 83%
    02:00 -1°C° 0 mm 1 mps 689 mmHg 83%
    03:00 -1°C° 0 mm 1 mps 689 mmHg 82%
    04:00 -1°C° 0 mm 1 mps 690 mmHg 82%
    05:00 -1°C° 0 mm 1 mps 690 mmHg 82%
    06:00 -1°C° 0 mm 1 mps 691 mmHg 82%
    07:00 -1°C° 0 mm 1 mps 691 mmHg 82%
    08:00 +1°C° 0 mm 1 mps 692 mmHg 79%
    09:00 +2°C° 0 mm 1 mps 693 mmHg 75%
    10:00 +4°C° 0 mm 1 mps 694 mmHg 72%
    11:00 +5°C° 0 mm 1 mps 694 mmHg 70%
    12:00 +6°C° 0 mm 1 mps 694 mmHg 68%
    13:00 +7°C° 0 mm 1 mps 694 mmHg 66%
    14:00 +6°C° 0 mm 1 mps 694 mmHg 70%
    15:00 +5°C° 0 mm 1 mps 694 mmHg 75%
    16:00 +4°C° 0 mm 1 mps 694 mmHg 79%
    17:00 +3°C° 0 mm 1 mps 695 mmHg 81%
    18:00 +2°C° 0 mm 1 mps 695 mmHg 84%
    19:00 0°C° 0 mm 1 mps 695 mmHg 86%
    20:00 0°C° 0 mm 1 mps 695 mmHg 86%
    21:00 0°C° 0 mm 1 mps 695 mmHg 85%
    22:00 -1°C° 0 mm 1 mps 696 mmHg 85%
    23:00 -1°C° 0 mm 1 mps 696 mmHg 84%

    24 January, Wednesday

    Time Temperature Precipitation Wind Pressure Humidity
    00:00 -1°C° 0 mm 1 mps 696 mmHg 84%
    01:00 -1°C° 0 mm 1 mps 696 mmHg 83%
    02:00 -1°C° 0 mm 1 mps 696 mmHg 83%
    03:00 -1°C° 0 mm 1 mps 696 mmHg 83%
    04:00 -1°C° 0 mm 1 mps 696 mmHg 83%
    05:00 -1°C° 0 mm 1 mps 696 mmHg 82%
    06:00 -1°C° 0 mm 1 mps 696 mmHg 82%
    07:00 -1°C° 0 mm 1 mps 696 mmHg 82%
    08:00 +1°C° 0 mm 1 mps 696 mmHg 78%
    09:00 +1°C° 0 mm 0 mps 697 mmHg 74%
    10:00 +3°C° 0 mm 0 mps 697 mmHg 70%
    11:00 +5°C° 0 mm 1 mps 697 mmHg 68%
    12:00 +6°C° 0 mm 1 mps 697 mmHg 67%
    13:00 +7°C° 0 mm 1 mps 697 mmHg 65%
    14:00 +6°C° 0 mm 1 mps 696 mmHg 70%
    15:00 +6°C° 0 mm 1 mps 696 mmHg 74%
    16:00 +5°C° 0 mm 1 mps 696 mmHg 79%
    17:00 +4°C° 0 mm 1 mps 695 mmHg 81%
    18:00 +3°C° 0 mm 1 mps 695 mmHg 83%
    19:00 +1°C° 0 mm 1 mps 695 mmHg 86%
    20:00 +1°C° 0 mm 1 mps 695 mmHg 85%
    21:00 +1°C° 0 mm 1 mps 695 mmHg 85%
    22:00 +1°C° 0 mm 1 mps 695 mmHg 85%
    23:00 +1°C° 0 mm 1 mps 695 mmHg 85%

    25 January, Thursday

    Time Temperature Precipitation Wind Pressure Humidity
    00:00 0°C° 0 mm 1 mps 694 mmHg 85%
    01:00 0°C° 0 mm 1 mps 694 mmHg 85%
    02:00 0°C° 0 mm 1 mps 694 mmHg 85%
    03:00 0°C° 0 mm 1 mps 693 mmHg 85%
    04:00 0°C° 0 mm 1 mps 693 mmHg 86%
    05:00 0°C° 0 mm 1 mps 693 mmHg 86%
    06:00 0°C° 0 mm 1 mps 693 mmHg 86%
    07:00 0°C° 0 mm 1 mps 693 mmHg 87%
    08:00 +1°C° 0 mm 1 mps 693 mmHg 84%
    09:00 +3°C° 0 mm 1 mps 693 mmHg 81%
    10:00 +3°C° 0 mm 2 mps 693 mmHg 78%
    11:00 +4°C° 0 mm 2 mps 693 mmHg 77%
    12:00 +5°C° 0 mm 2 mps 692 mmHg 76%
    13:00 +5°C° 0 mm 2 mps 692 mmHg 75%
    14:00 +5°C° 0 mm 2 mps 692 mmHg 79%
    15:00 +4°C° 0 mm 2 mps 691 mmHg 83%
    16:00 +5°C° 0 mm 1 mps 691 mmHg 86%
    17:00 +4°C° 0 mm 1 mps 691 mmHg 89%
    18:00 +3°C° 0 mm 1 mps 691 mmHg 91%
    19:00 +2°C° 0 mm 1 mps 690 mmHg 93%
    20:00 +2°C° 0 mm 1 mps 690 mmHg 93%
    21:00 +2°C° 0 mm 1 mps 690 mmHg 94%
    22:00 +2°C° 0 mm 1 mps 690 mmHg 94%
    23:00 +2°C° 0 mm 1 mps 690 mmHg 94%

    26 January, Friday

    Time Temperature Precipitation Wind Pressure Humidity
    00:00 +2°C° 0 mm 1 mps 689 mmHg 94%
    01:00 +2°C° 0 mm 1 mps 689 mmHg 94%
    02:00 +2°C° 0 mm 1 mps 689 mmHg 94%
    03:00 +2°C° 0 mm 1 mps 688 mmHg 94%
    04:00 +3°C° 0 mm 1 mps 688 mmHg 94%
    05:00 +3°C° 0 mm 1 mps 688 mmHg 94%
    06:00 +3°C° 0 mm 1 mps 688 mmHg 94%
    07:00 +3°C° 0 mm 1 mps 688 mmHg 94%
    08:00 +3°C° 0.1 mm 1 mps 688 mmHg 93%
    09:00 +4°C° 0.1 mm 1 mps 688 mmHg 92%
    10:00 +5°C° 0.1 mm 1 mps 688 mmHg 91%
    11:00 +5°C° 0.3 mm 1 mps 688 mmHg 91%
    12:00 +6°C° 0.3 mm 1 mps 688 mmHg 91%
    13:00 +5°C° 0.3 mm 2 mps 688 mmHg 91%
    14:00 +6°C° 0.5 mm 1 mps 688 mmHg 91%
    15:00 +6°C° 0.5 mm 1 mps 688 mmHg 92%
    16:00 +6°C° 0.5 mm 1 mps 688 mmHg 93%
    17:00 +5°C° 0.6 mm 1 mps 688 mmHg 94%
    18:00 +5°C° 0.6 mm 1 mps 689 mmHg 94%
    19:00 +5°C° 0.6 mm 1 mps 689 mmHg 95%
    20:00 +5°C° 0.8 mm 1 mps 689 mmHg 95%
    21:00 +5°C° 0.8 mm 1 mps 690 mmHg 95%
    22:00 +5°C° 0.8 mm 1 mps 690 mmHg 95%
    23:00 +5°C° 0.9 mm 1 mps 690 mmHg 95%
    Show more